When you browse on this site, cookies collect data to enhance your experience and personalize the content and advertising you see.
Visit our Privacy Policy to learn more. By continuing to use the site, you agree to this use of cookies and data.
  • în România
  • Lista ţărilor
  • Pe 7 zile
  • Temperatura apei
  • Hartă satelitară
  • Meteo pe hartă
  • Widget-uri
  • user-avatar
    Intrare

    Meteo pe oră la Clivlend

    Astăzi, 23 Februarie, Sâmbătă

    Timp Temperatura Precipitaţii Vânt Presiune Umiditate
    00:00 -1°C° 0 mm 2 m/s 755 mmHg 81%
    01:00 -1°C° 0 mm 3 m/s 755 mmHg 80%
    02:00 -1°C° 0 mm 3 m/s 754 mmHg 80%
    03:00 -1°C° 0 mm 3 m/s 754 mmHg 80%
    04:00 -1°C° 0 mm 3 m/s 753 mmHg 79%
    05:00 -1°C° 0 mm 3 m/s 753 mmHg 79%
    06:00 -1°C° 0 mm 3 m/s 752 mmHg 79%
    07:00 -1°C° 0 mm 3 m/s 752 mmHg 79%
    08:00 0°C° 0 mm 3 m/s 751 mmHg 76%
    09:00 +2°C° 0 mm 3 m/s 751 mmHg 74%
    10:00 +3°C° 0 mm 3 m/s 750 mmHg 71%
    11:00 +4°C° 0 mm 3 m/s 749 mmHg 72%
    12:00 +5°C° 0 mm 3 m/s 748 mmHg 72%
    13:00 +7°C° 0 mm 3 m/s 747 mmHg 73%
    14:00 +7°C° 0 mm 4 m/s 747 mmHg 75%
    15:00 +7°C° 0 mm 4 m/s 746 mmHg 77%
    16:00 +8°C° 0 mm 5 m/s 745 mmHg 79%
    17:00 +8°C° 0 mm 5 m/s 744 mmHg 83%
    18:00 +7°C° 0 mm 5 m/s 744 mmHg 87%
    19:00 +7°C° 0 mm 6 m/s 743 mmHg 92%
    20:00 +7°C° 0.2 mm 6 m/s 742 mmHg 92%
    21:00 +7°C° 0.2 mm 6 m/s 741 mmHg 93%
    22:00 +6°C° 0.2 mm 7 m/s 740 mmHg 93%
    23:00 +8°C° 0.4 mm 7 m/s 739 mmHg 93%

    Mâine, 24 Februarie, Duminică

    Timp Temperatura Precipitaţii Vânt Presiune Umiditate
    00:00 +7°C° 0.4 mm 8 m/s 737 mmHg 93%
    01:00 +7°C° 0.4 mm 8 m/s 736 mmHg 93%
    02:00 +8°C° 0.7 mm 9 m/s 735 mmHg 92%
    03:00 +10°C° 0.7 mm 9 m/s 733 mmHg 92%
    04:00 +11°C° 0.7 mm 9 m/s 731 mmHg 92%
    05:00 +11°C° 0.3 mm 9 m/s 730 mmHg 91%
    06:00 +11°C° 0.3 mm 8 m/s 729 mmHg 89%
    07:00 +12°C° 0.3 mm 8 m/s 728 mmHg 87%
    08:00 +11°C° 0 mm 9 m/s 728 mmHg 80%
    09:00 +9°C° 0 mm 10 m/s 728 mmHg 73%
    10:00 +9°C° 0 mm 11 m/s 727 mmHg 66%
    11:00 +7°C° 0.2 mm 11 m/s 728 mmHg 66%
    12:00 +4°C° 0.2 mm 12 m/s 729 mmHg 65%
    13:00 +3°C° 0.2 mm 12 m/s 730 mmHg 65%
    14:00 +2°C° 0.1 mm 12 m/s 730 mmHg 65%
    15:00 +2°C° 0.1 mm 12 m/s 731 mmHg 66%
    16:00 0°C° 0.1 mm 12 m/s 732 mmHg 66%
    17:00 -1°C° 0.1 mm 13 m/s 733 mmHg 67%
    18:00 -2°C° 0.1 mm 13 m/s 734 mmHg 68%
    19:00 -4°C° 0.1 mm 13 m/s 736 mmHg 69%
    20:00 -5°C° 0.1 mm 13 m/s 736 mmHg 67%
    21:00 -6°C° 0.1 mm 13 m/s 737 mmHg 66%
    22:00 -9°C° 0.1 mm 14 m/s 738 mmHg 65%
    23:00 -9°C° 0 mm 13 m/s 739 mmHg 64%

    Poimâine, 25 Februarie, Luni

    Timp Temperatura Precipitaţii Vânt Presiune Umiditate
    00:00 -10°C° 0 mm 13 m/s 740 mmHg 63%
    01:00 -10°C° 0 mm 13 m/s 741 mmHg 62%
    02:00 -10°C° 0 mm 13 m/s 742 mmHg 62%
    03:00 -11°C° 0 mm 12 m/s 743 mmHg 63%
    04:00 -11°C° 0 mm 12 m/s 744 mmHg 63%
    05:00 -11°C° 0 mm 12 m/s 745 mmHg 63%
    06:00 -12°C° 0 mm 11 m/s 746 mmHg 63%
    07:00 -12°C° 0 mm 11 m/s 747 mmHg 63%
    08:00 -12°C° 0 mm 10 m/s 749 mmHg 61%
    09:00 -12°C° 0 mm 10 m/s 750 mmHg 59%
    10:00 -11°C° 0 mm 9 m/s 751 mmHg 57%
    11:00 -11°C° 0 mm 9 m/s 751 mmHg 54%
    12:00 -10°C° 0 mm 9 m/s 752 mmHg 51%
    13:00 -10°C° 0 mm 9 m/s 752 mmHg 49%
    14:00 -8°C° 0 mm 8 m/s 753 mmHg 48%
    15:00 -8°C° 0 mm 8 m/s 753 mmHg 48%
    16:00 -8°C° 0 mm 7 m/s 753 mmHg 48%
    17:00 -8°C° 0 mm 6 m/s 754 mmHg 51%
    18:00 -9°C° 0 mm 6 m/s 754 mmHg 53%
    19:00 -8°C° 0 mm 5 m/s 755 mmHg 56%
    20:00 -8°C° 0 mm 5 m/s 755 mmHg 56%
    21:00 -8°C° 0 mm 4 m/s 755 mmHg 57%
    22:00 -9°C° 0 mm 4 m/s 756 mmHg 58%
    23:00 -9°C° 0 mm 4 m/s 756 mmHg 59%

    26 Februarie, Marţi

    Timp Temperatura Precipitaţii Vânt Presiune Umiditate
    00:00 -9°C° 0 mm 4 m/s 756 mmHg 60%
    01:00 -9°C° 0 mm 4 m/s 756 mmHg 62%
    02:00 -10°C° 0 mm 4 m/s 757 mmHg 64%
    03:00 -10°C° 0 mm 4 m/s 757 mmHg 66%
    04:00 -10°C° 0 mm 4 m/s 757 mmHg 69%
    05:00 -10°C° 0 mm 4 m/s 757 mmHg 69%
    06:00 -9°C° 0 mm 3 m/s 758 mmHg 70%
    07:00 -10°C° 0 mm 3 m/s 758 mmHg 71%
    08:00 -9°C° 0 mm 3 m/s 759 mmHg 66%
    09:00 -8°C° 0 mm 2 m/s 759 mmHg 62%
    10:00 -7°C° 0 mm 2 m/s 759 mmHg 57%
    11:00 -6°C° 0 mm 2 m/s 759 mmHg 53%
    12:00 -5°C° 0 mm 2 m/s 759 mmHg 49%
    13:00 -4°C° 0 mm 2 m/s 759 mmHg 45%
    14:00 -4°C° 0 mm 2 m/s 758 mmHg 45%
    15:00 -4°C° 0 mm 2 m/s 758 mmHg 45%
    16:00 -4°C° 0 mm 2 m/s 757 mmHg 44%
    17:00 -4°C° 0 mm 2 m/s 757 mmHg 47%
    18:00 -6°C° 0 mm 3 m/s 757 mmHg 51%
    19:00 -6°C° 0 mm 3 m/s 757 mmHg 54%
    20:00 -6°C° 0 mm 3 m/s 757 mmHg 54%
    21:00 -8°C° 0 mm 4 m/s 757 mmHg 54%
    22:00 -8°C° 0 mm 4 m/s 756 mmHg 55%
    23:00 -8°C° 0 mm 4 m/s 756 mmHg 55%

    27 Februarie, Miercuri

    Timp Temperatura Precipitaţii Vânt Presiune Umiditate
    00:00 -7°C° 0 mm 4 m/s 755 mmHg 55%
    01:00 -7°C° 0 mm 4 m/s 754 mmHg 55%
    02:00 -7°C° 0 mm 4 m/s 753 mmHg 55%
    03:00 -7°C° 0 mm 4 m/s 753 mmHg 56%
    04:00 -5°C° 0 mm 4 m/s 752 mmHg 56%
    05:00 -5°C° 0 mm 4 m/s 751 mmHg 57%
    06:00 -4°C° 0 mm 4 m/s 750 mmHg 58%
    07:00 -4°C° 0 mm 4 m/s 750 mmHg 58%
    08:00 -2°C° 0 mm 5 m/s 749 mmHg 58%
    09:00 -1°C° 0 mm 5 m/s 748 mmHg 57%
    10:00 0°C° 0 mm 5 m/s 747 mmHg 57%
    11:00 +3°C° 0 mm 6 m/s 746 mmHg 57%
    12:00 +5°C° 0 mm 6 m/s 745 mmHg 58%
    13:00 +9°C° 0 mm 6 m/s 744 mmHg 58%
    14:00 +7°C° 0.6 mm 6 m/s 743 mmHg 69%
    15:00 +5°C° 0.6 mm 6 m/s 743 mmHg 80%
    16:00 +3°C° 0.6 mm 6 m/s 743 mmHg 91%
    17:00 +2°C° 0.5 mm 6 m/s 743 mmHg 91%
    18:00 +2°C° 0.5 mm 6 m/s 744 mmHg 92%
    19:00 0°C° 0.5 mm 7 m/s 744 mmHg 93%
    20:00 -2°C° 0 mm 7 m/s 745 mmHg 88%
    21:00 -3°C° 0 mm 6 m/s 746 mmHg 84%
    22:00 -5°C° 0 mm 6 m/s 747 mmHg 80%
    23:00 -5°C° 0 mm 6 m/s 748 mmHg 79%

    28 Februarie, Joi

    Timp Temperatura Precipitaţii Vânt Presiune Umiditate
    00:00 -6°C° 0 mm 5 m/s 748 mmHg 77%
    01:00 -7°C° 0 mm 5 m/s 749 mmHg 76%
    02:00 -7°C° 0 mm 5 m/s 749 mmHg 74%
    03:00 -8°C° 0 mm 5 m/s 749 mmHg 73%
    04:00 -8°C° 0 mm 4 m/s 750 mmHg 71%
    05:00 -8°C° 0 mm 4 m/s 750 mmHg 71%
    06:00 -9°C° 0 mm 4 m/s 750 mmHg 72%
    07:00 -8°C° 0 mm 3 m/s 751 mmHg 72%
    08:00 -8°C° 0 mm 3 m/s 751 mmHg 68%
    09:00 -6°C° 0 mm 2 m/s 751 mmHg 63%
    10:00 -5°C° 0 mm 2 m/s 751 mmHg 59%
    11:00 -4°C° 0 mm 2 m/s 751 mmHg 55%
    12:00 -4°C° 0 mm 2 m/s 750 mmHg 51%
    13:00 -3°C° 0 mm 2 m/s 750 mmHg 46%
    14:00 -3°C° 0 mm 2 m/s 750 mmHg 47%
    15:00 -3°C° 0 mm 2 m/s 749 mmHg 49%
    16:00 -3°C° 0 mm 2 m/s 749 mmHg 50%
    17:00 -3°C° 0 mm 2 m/s 749 mmHg 54%
    18:00 -2°C° 0 mm 1 m/s 749 mmHg 58%
    19:00 -2°C° 0 mm 1 m/s 749 mmHg 62%
    20:00 -2°C° 0 mm 1 m/s 749 mmHg 63%
    21:00 -2°C° 0 mm 1 m/s 749 mmHg 65%
    22:00 -3°C° 0 mm 1 m/s 749 mmHg 66%
    23:00 -3°C° 0 mm 1 m/s 749 mmHg 66%
    Arată mai mult